Location: Unspecified
(0.0000°N, 0.0000°E)
Time: 00:46:32
(UTC+00:00)

Courier 1B Rocket - Pass Details

Date: 15 December 2018
Orbit: 920 x 1202 km, 28.3° (Epoch: 18 January)

Event Time Altitude Azimuth Distance (km) Brightness Sun altitude
Rises 15:44:08 0° 313° (NW) 4,018 8.4 29.8°
Reaches altitude 10° 15:47:05 10° 320° (NW) 3,084 7.9 29.2°
Maximum altitude 15:54:20 43° 29° (NNE) 1,625 6.1 27.5°
Drops below altitude 10° 16:01:38 10° 98° (E) 3,120 7.3 25.9°
Sets 16:04:38 0° 105° (ESE) 4,070 7.8 25.2°
